{"data":{"norad_id":61982,"epoch":"2026-09-21T01:40:06.568608Z","epoch_age_seconds":136335,"freshness":"FRESH","line1":"1 61982U 24210Z   26264.06952047  .00012891  00000+0  47704-3 0  9993","line2":"2 61982  42.9996 156.1691 0001427 275.0410  85.0279 15.27588516104766","mean_motion":15.27588516,"eccentricity":0.0001427,"inclination_deg":42.9996,"raan_deg":156.1691,"arg_perigee_deg":275.041,"mean_anomaly_deg":85.0279,"bstar":0.00047704,"rev_number":10476,"period_min":94.266223195409,"perigee_km":482.04450857343,"apogee_km":484.00268380758,"semimajor_km":6861.1605961905,"source":"CELESTRAK","updated_at":"2026-09-22T09:00:49.481845Z"}}